Location: Olda
(45.8833°N, 9.5500°E)
Time: 17:15:22
(UTC+00:00)

Cosmos 968 Rocket - Pass Details

Date: 03 March 2021
Orbit: 740 x 771 km, 74.0° (Epoch: 11 April)

Event Time Altitude Azimuth Distance (km) Brightness Sun altitude
Rises 17:48:39 0° 338° (NNW) 3,249 7.0 -7.3°
Reaches altitude 10° 17:51:02 10° 339° (NNW) 2,321 6.3 -7.7°
Maximum altitude 17:56:20 87° 66° (ENE) 779 3.5 -8.6°
Drops below altitude 10° 18:01:36 10° 159° (SSE) 2,309 5.8 -9.5°
Sets 18:03:58 0° 160° (SSE) 3,230 6.5 -10.0°
